sat.trackr.live / text

‹ back to catalog

SITRO-AIS 10 (BURDAEV)

NORAD 57199 · 2023-091AK

PAYLOAD ACTIVE UNKNOWN

§ Identity

Operator
Country
CIS
Launch date
2023-06-27
Launch site
VOSTO
Launch vehicle
Mass (kg)
RCS (m²)

Purposes: tech_demo

External: N2YO · Heavens-Above · Gunter

§ Orbital elements

Epoch: 2026-05-25T03:42:28.056960Z

Period
93.65 min
Inclination
97.5092°
Eccentricity
0.0007940
Mean motion
15.37605032 rev/d
Perigee alt
447.8 km
Apogee alt
458.6 km
Semi-major
6,831.3 km
B*
5.1594e-4
RAAN
215.1622°
Arg perigee
147.4885°
Mean anomaly
212.6850°
Rev number
16,122

§ Raw data

SITRO-AIS 10 (BURDAEV)1 57199U 23091AK  26145.15449140  .00019001  00000+0  51594-3 0  99992 57199  97.5092 215.1622 0007940 147.4885 212.6850 15.37605032161229

JSON: /api/v1/satellites/57199 · /tle

For live sub-satellite position, see the globe view (requires WebGL).

§ Visibility from observer

Set your observer location to see the next 7 days of passes ≥ 10°. The values pass through the URL so the page stays shareable.

No JS? Fill the form by hand. The geolocation button needs JavaScript.

§ Radio — SatNOGS DB

ModeDescriptionDownlinkUplink
GMSK USP Mode U - GMSK USP 2K4 TLM 401.290 MHz

1 transmitter · refreshed weekly from db.satnogs.org